, NM

(GMT )
Holloman AFB

Weather History for KHMN - March, 2014

Change the Weather History Date:

Monday, March 31, 2014

  Actual Average Record
Temperature  
Mean Temperature 60 °F -  
Max Temperature 77 °F 70 °F 85 °F (2012)
Min Temperature 44 °F 41 °F 28 °F (1998)
Degree Days  
Heating Degree Days 4    
Growing Degree Days 10 (Base 50)    
Moisture  
Dew Point 9 °F    
Average Humidity 12    
Maximum Humidity 33    
Minimum Humidity 5    
Precipitation  
Precipitation 0.00 in - - ()
Sea Level Pressure  
Sea Level Pressure 29.82 in    
Wind  
Wind Speed 8 mph (SSW)    
Max Wind Speed 21 mph    
Max Gust Speed 32 mph    
Visibility 10 miles    
Events      
Averages and records for this station are not official NWS values.
T = Trace of Precipitation, MM = Missing Value Source: NWS Daily Summary

Daily Weather History Graph

Daily Weather History Graph

Search for Another Location

Airport or City:

Trip Planner

Search our weather history database for the weather conditions in past years. The results will help you decide how hot, cold, wet, or windy it might be!

Date:

Astronomy

Mar. 31, 2014 Rise Set
Actual Time 6:53 AM MDT 7:23 PM MDT
Civil Twilight 6:28 AM MDT 7:48 PM MDT
Nautical Twilight 5:59 AM MDT 8:17 PM MDT
Astronomical Twilight 5:30 AM MDT 8:47 PM MDT
Moon 7:22 AM MDT (3/31) 8:40 PM MDT (3/31)
Length of Visible Light 13h 19m
Length of Day
12h 30m
New Moon, 1% of the Moon is Illuminated
Mar 31
New Moon
Apr 7
First Quarter
Apr 15
Full
Apr 22
Last Quarter
Apr 29
New

Hourly Weather History & Observations

Time (MDT) Temp. Windchill Dew Point Humidity Pressure Visibility Wind Dir Wind Speed Gust Speed Precip Events Conditions
12:58 AM 59.0 °F - 15.8 °F 19% 29.74 in 10.0 mi Variable 5.8 mph - N/A   Clear
1:58 AM 61.5 °F - 14.5 °F 16% 29.73 in 10.0 mi NNW 3.5 mph - N/A   Clear
2:58 AM 59.7 °F - 15.8 °F 18% 29.73 in 10.0 mi NNW 5.8 mph - N/A   Clear
3:58 AM 58.5 °F - 17.4 °F 20% 29.70 in 10.0 mi SE 6.9 mph - N/A   Clear
4:58 AM 54.0 °F - 17.6 °F 24% 29.74 in 10.0 mi Calm Calm - N/A   Clear
5:58 AM 51.4 °F - 17.4 °F 26% 29.77 in 10.0 mi East 5.8 mph - N/A   Clear
6:58 AM 44.6 °F 40.7 °F 16.9 °F 33% 29.82 in 10.0 mi ESE 6.9 mph - N/A   Clear
7:58 AM 53.2 °F - 19.4 °F 27% 29.84 in 10.0 mi SSE 4.6 mph - N/A   Clear
8:58 AM 64.0 °F - 19.0 °F 18% 29.84 in 10.0 mi SW 3.5 mph - N/A   Clear
9:58 AM 67.6 °F - 13.5 °F 12% 29.85 in 10.0 mi West 4.6 mph - N/A   Clear
10:58 AM 68.4 °F - 12.0 °F 11% 29.86 in 10.0 mi Variable 2.3 mph - N/A   Clear
11:58 AM 71.2 °F - 4.3 °F 7% 29.86 in 10.0 mi Variable 2.3 mph - N/A   Clear
12:58 PM 73.2 °F - -0.6 °F 5% 29.84 in 10.0 mi West 10.4 mph 17.3 mph N/A   Clear
1:19 PM 73.4 °F - 3.2 °F 6% 29.99 in 10.0 mi SSW 17.3 mph 26.5 mph N/A   Clear
1:24 PM 73.4 °F - 3.2 °F 6% 29.99 in 10.0 mi SSE 11.5 mph 26.5 mph N/A   Clear
1:27 PM 73.4 °F - 3.2 °F 6% 29.99 in 10.0 mi SSW 16.1 mph 20.7 mph N/A   Clear
1:58 PM 73.9 °F - 3.0 °F 6% 29.80 in 10.0 mi SSW 5.8 mph 17.3 mph N/A   Clear
2:57 PM 77.0 °F - 1.4 °F 5% 29.94 in 10.0 mi West 17.3 mph 26.5 mph N/A   Clear
2:58 PM 76.5 °F - 0.9 °F 5% 29.77 in 10.0 mi West 17.3 mph 26.5 mph N/A   Clear
3:22 PM 77.0 °F - 5.0 °F 6% 29.94 in 10.0 mi SSW 20.7 mph 25.3 mph N/A   Clear
3:58 PM 77.5 °F - 3.2 °F 6% 29.75 in 10.0 mi WSW 17.3 mph 25.3 mph N/A   Clear
4:58 PM 76.5 °F - 0.9 °F 5% 29.75 in 10.0 mi WSW 19.6 mph 32.2 mph N/A   Clear
5:58 PM 75.6 °F - 4.1 °F 6% 29.76 in 10.0 mi WSW 18.4 mph 25.3 mph N/A   Clear
6:58 PM 73.0 °F - 2.3 °F 6% 29.80 in 10.0 mi WSW 13.8 mph - N/A   Clear
7:58 PM 67.5 °F - 5.5 °F 9% 29.80 in 10.0 mi East 4.6 mph - N/A   Clear
8:58 PM 64.2 °F - 4.5 °F 9% 29.81 in 10.0 mi SE 6.9 mph - N/A   Clear
9:58 PM 60.4 °F - 6.6 °F 12% 29.82 in 10.0 mi Calm Calm - N/A   Clear
10:58 PM 54.0 °F - 7.5 °F 16% 29.83 in 10.0 mi ENE 5.8 mph - N/A   Clear
11:58 PM 53.1 °F - 9.5 °F 17% 29.82 in 10.0 mi East 5.8 mph - N/A   Clear